Location: Gro�wechsungen
(51.4926°N, 10.6901°E)
Time: 09:56:22
(UTC+00:00)

Meteor 1-21 - Pass Details

Date: 18 September 2020
Orbit: 845 x 887 km, 81.2° (Epoch: 25 October)

Event Time Altitude Azimuth Distance (km) Brightness Sun altitude
Rises 18:11:54 0° 346° (NNW) 3,436 7.8 -8.2°
Reaches altitude 10° 18:14:20 10° 346° (NNW) 2,491 7.0 -8.6°
Maximum altitude 18:19:59 82° 261° (W) 863 4.4 -9.4°
Drops below altitude 10° 18:25:34 10° 173° (S) 2,462 6.4 -10.3°
Sets 18:27:58 0° 173° (S) 3,394 7.1 -10.6°
